Previsão horária em Cazones

Hoje, 25 Julho, Domingo

Tempo Temperatura Precipitação Vento Pressão Humidade
00:00 +27°C° 0.1 mm 1 m/s 761 mmHg 90%
01:00 +26°C° 0 mm 1 m/s 760 mmHg 91%
02:00 +26°C° 0 mm 1 m/s 760 mmHg 92%
03:00 +24°C° 0 mm 0 m/s 759 mmHg 92%
04:00 +26°C° 0 mm 1 m/s 759 mmHg 93%
05:00 +26°C° 0 mm 1 m/s 759 mmHg 93%
06:00 +25°C° 0 mm 1 m/s 759 mmHg 94%
07:00 +27°C° 0 mm 1 m/s 760 mmHg 87%
08:00 +29°C° 0 mm 1 m/s 760 mmHg 81%
09:00 +28°C° 0 mm 0 m/s 760 mmHg 74%
10:00 +31°C° 0 mm 1 m/s 760 mmHg 68%
11:00 +34°C° 0 mm 2 m/s 760 mmHg 62%
12:00 +35°C° 0 mm 3 m/s 760 mmHg 55%
13:00 +35°C° 0 mm 3 m/s 759 mmHg 55%
14:00 +35°C° 0 mm 4 m/s 759 mmHg 55%
15:00 +35°C° 0 mm 4 m/s 758 mmHg 55%
16:00 +34°C° 0 mm 4 m/s 758 mmHg 58%
17:00 +33°C° 0 mm 4 m/s 758 mmHg 61%
18:00 +32°C° 0 mm 4 m/s 758 mmHg 64%
19:00 +30°C° 0 mm 4 m/s 758 mmHg 70%
20:00 +28°C° 0 mm 3 m/s 759 mmHg 76%
21:00 +27°C° 0 mm 2 m/s 759 mmHg 82%
22:00 +27°C° 0 mm 2 m/s 759 mmHg 84%
23:00 +26°C° 0 mm 1 m/s 759 mmHg 85%

Amanhã, 26 Julho, Segunda-feira

Tempo Temperatura Precipitação Vento Pressão Humidade
00:00 +26°C° 0 mm 1 m/s 759 mmHg 87%
01:00 +25°C° 0 mm 1 m/s 759 mmHg 87%
02:00 +25°C° 0 mm 1 m/s 758 mmHg 88%
03:00 +25°C° 0 mm 1 m/s 758 mmHg 88%
04:00 +24°C° 0 mm 1 m/s 758 mmHg 89%
05:00 +24°C° 0 mm 1 m/s 758 mmHg 89%
06:00 +24°C° 0 mm 1 m/s 758 mmHg 89%
07:00 +26°C° 0 mm 1 m/s 759 mmHg 81%
08:00 +28°C° 0 mm 1 m/s 759 mmHg 73%
09:00 +30°C° 0 mm 1 m/s 760 mmHg 64%
10:00 +31°C° 0 mm 1 m/s 759 mmHg 58%
11:00 +33°C° 0 mm 1 m/s 759 mmHg 52%
12:00 +35°C° 0 mm 2 m/s 759 mmHg 47%
13:00 +35°C° 0 mm 2 m/s 758 mmHg 46%
14:00 +36°C° 0 mm 3 m/s 758 mmHg 45%
15:00 +36°C° 0 mm 3 m/s 757 mmHg 44%
16:00 +34°C° 0 mm 4 m/s 757 mmHg 50%
17:00 +33°C° 0 mm 4 m/s 757 mmHg 56%
18:00 +32°C° 0 mm 4 m/s 757 mmHg 62%
19:00 +30°C° 0 mm 3 m/s 758 mmHg 70%
20:00 +28°C° 0 mm 3 m/s 758 mmHg 78%
21:00 +27°C° 0 mm 2 m/s 759 mmHg 85%
22:00 +27°C° 0 mm 2 m/s 759 mmHg 86%
23:00 +26°C° 0 mm 1 m/s 759 mmHg 87%

Depois de amanhã, 27 Julho, Terça-feira

Tempo Temperatura Precipitação Vento Pressão Humidade
00:00 +26°C° 0 mm 1 m/s 759 mmHg 87%
01:00 +26°C° 0 mm 1 m/s 759 mmHg 88%
02:00 +25°C° 0 mm 1 m/s 758 mmHg 88%
03:00 +25°C° 0 mm 1 m/s 758 mmHg 89%
04:00 +25°C° 0 mm 1 m/s 758 mmHg 88%
05:00 +25°C° 0 mm 1 m/s 758 mmHg 88%
06:00 +24°C° 0 mm 1 m/s 759 mmHg 88%
07:00 +26°C° 0 mm 1 m/s 759 mmHg 80%
08:00 +28°C° 0 mm 1 m/s 760 mmHg 72%
09:00 +30°C° 0 mm 1 m/s 760 mmHg 65%
10:00 +31°C° 0 mm 1 m/s 760 mmHg 59%
11:00 +33°C° 0 mm 1 m/s 759 mmHg 54%
12:00 +35°C° 0 mm 1 m/s 759 mmHg 48%
13:00 +36°C° 0 mm 2 m/s 758 mmHg 48%
14:00 +36°C° 0 mm 3 m/s 758 mmHg 47%
15:00 +36°C° 0 mm 4 m/s 758 mmHg 47%
16:00 +35°C° 0 mm 4 m/s 758 mmHg 51%
17:00 +34°C° 0 mm 4 m/s 758 mmHg 55%
18:00 +32°C° 0 mm 4 m/s 758 mmHg 60%
19:00 +30°C° 0 mm 4 m/s 758 mmHg 67%
20:00 +28°C° 0 mm 3 m/s 759 mmHg 74%
21:00 +27°C° 0 mm 2 m/s 759 mmHg 82%
22:00 +27°C° 0 mm 2 m/s 759 mmHg 83%
23:00 +26°C° 0 mm 2 m/s 759 mmHg 84%

28 Julho, Quarta-feira

Tempo Temperatura Precipitação Vento Pressão Humidade
00:00 +26°C° 0 mm 1 m/s 759 mmHg 86%
01:00 +25°C° 0 mm 1 m/s 759 mmHg 86%
02:00 +25°C° 0 mm 1 m/s 759 mmHg 87%
03:00 +25°C° 0 mm 1 m/s 758 mmHg 88%
04:00 +24°C° 0 mm 1 m/s 759 mmHg 88%
05:00 +24°C° 0 mm 1 m/s 759 mmHg 88%
06:00 +24°C° 0 mm 1 m/s 759 mmHg 88%
07:00 +26°C° 0 mm 1 m/s 759 mmHg 79%
08:00 +28°C° 0 mm 1 m/s 760 mmHg 70%
09:00 +28°C° 0 mm 0 m/s 760 mmHg 61%
10:00 +32°C° 0 mm 1 m/s 760 mmHg 56%
11:00 +34°C° 0 mm 2 m/s 760 mmHg 51%
12:00 +35°C° 0 mm 3 m/s 760 mmHg 46%
13:00 +35°C° 0 mm 3 m/s 759 mmHg 46%
14:00 +36°C° 0 mm 4 m/s 759 mmHg 46%
15:00 +36°C° 0 mm 5 m/s 758 mmHg 45%
16:00 +35°C° 0 mm 4 m/s 758 mmHg 49%
17:00 +34°C° 0 mm 4 m/s 758 mmHg 54%
18:00 +33°C° 0 mm 4 m/s 758 mmHg 58%
19:00 +30°C° 0 mm 3 m/s 758 mmHg 67%
20:00 +29°C° 0 mm 2 m/s 759 mmHg 76%
21:00 +27°C° 0 mm 2 m/s 759 mmHg 85%
22:00 +27°C° 0.1 mm 2 m/s 759 mmHg 87%
23:00 +27°C° 0.1 mm 1 m/s 759 mmHg 89%

29 Julho, Quinta-feira

Tempo Temperatura Precipitação Vento Pressão Humidade
00:00 +26°C° 0.1 mm 1 m/s 759 mmHg 90%
01:00 +26°C° 0.2 mm 1 m/s 759 mmHg 91%
02:00 +26°C° 0.2 mm 1 m/s 759 mmHg 92%
03:00 +25°C° 0.2 mm 1 m/s 759 mmHg 92%
04:00 +25°C° 0.2 mm 1 m/s 759 mmHg 92%
05:00 +25°C° 0.2 mm 1 m/s 759 mmHg 92%
06:00 +25°C° 0.2 mm 2 m/s 759 mmHg 93%
07:00 +27°C° 0 mm 1 m/s 760 mmHg 85%
08:00 +29°C° 0 mm 1 m/s 760 mmHg 77%
09:00 +31°C° 0 mm 1 m/s 761 mmHg 69%
10:00 +32°C° 0.1 mm 2 m/s 760 mmHg 62%
11:00 +35°C° 0.1 mm 2 m/s 760 mmHg 55%
12:00 +36°C° 0.1 mm 3 m/s 760 mmHg 48%
13:00 +36°C° 0 mm 3 m/s 759 mmHg 50%
14:00 +35°C° 0 mm 4 m/s 759 mmHg 51%
15:00 +35°C° 0 mm 5 m/s 759 mmHg 52%
16:00 +34°C° 0 mm 5 m/s 759 mmHg 56%
17:00 +34°C° 0 mm 4 m/s 759 mmHg 59%
18:00 +33°C° 0 mm 4 m/s 759 mmHg 63%
19:00 +30°C° 0.5 mm 3 m/s 759 mmHg 71%
20:00 +29°C° 0.5 mm 2 m/s 760 mmHg 79%
21:00 +27°C° 0.5 mm 2 m/s 760 mmHg 87%
22:00 +27°C° 0 mm 2 m/s 760 mmHg 88%
23:00 +27°C° 0 mm 1 m/s 760 mmHg 88%

30 Julho, Sexta-feira

Tempo Temperatura Precipitação Vento Pressão Humidade
00:00 +27°C° 0 mm 1 m/s 760 mmHg 89%
01:00 +26°C° 0.2 mm 1 m/s 760 mmHg 90%
02:00 +26°C° 0.2 mm 1 m/s 760 mmHg 90%
03:00 +25°C° 0.2 mm 1 m/s 759 mmHg 91%
04:00 +25°C° 0 mm 1 m/s 760 mmHg 91%
05:00 +25°C° 0 mm 1 m/s 760 mmHg 91%
06:00 +25°C° 0 mm 1 m/s 760 mmHg 91%
07:00 +27°C° 0.2 mm 1 m/s 760 mmHg 84%
08:00 +26°C° 0.2 mm 0 m/s 761 mmHg 78%
09:00 +28°C° 0.2 mm 0 m/s 761 mmHg 71%
10:00 +31°C° 0.1 mm 1 m/s 761 mmHg 64%
11:00 +34°C° 0.1 mm 2 m/s 761 mmHg 57%
12:00 +35°C° 0.1 mm 4 m/s 760 mmHg 49%
13:00 +35°C° 0.2 mm 4 m/s 760 mmHg 51%
14:00 +35°C° 0.2 mm 5 m/s 760 mmHg 52%
15:00 +35°C° 0.2 mm 5 m/s 760 mmHg 54%
16:00 +34°C° 0.1 mm 5 m/s 760 mmHg 58%
17:00 +33°C° 0.1 mm 5 m/s 760 mmHg 62%
18:00 +32°C° 0.1 mm 4 m/s 760 mmHg 66%
19:00 +30°C° 0.1 mm 3 m/s 760 mmHg 72%
20:00 +29°C° 0.1 mm 2 m/s 761 mmHg 78%
21:00 +28°C° 0.1 mm 2 m/s 761 mmHg 84%
22:00 +27°C° 0 mm 1 m/s 761 mmHg 86%
23:00 +27°C° 0 mm 1 m/s 761 mmHg 87%
Mostrar mais

Necessitamos do seu Consentimento

A Meteoprog e os seus Fornecedores de Serviços podem armazenar e aceder a dados pessoais como cookies, identificadores do dispositivo ou outras tecnologias semelhantes existentes no seu dispositivo e processar estes dados para personalizar conteúdos e anúncios, assim como funcionalidades nas redes sociais e análise de tráfego.

  • Armazenar e/ou aceder a informações no seu dispositivo

    Os cookies, identificadores do dispositivo ou outras informações podem ser armazenados ou acedidos no seu dispositivo, para os fins acima indicados.

  • Anúncios e conteúdos personalizados, medição de anúncios e conteúdos, dados sobre o público-alvo e desenvolvimento de produtos

    Os anúncios e os conteúdos podem ser personalizados com base num perfil. Podem ser adicionados dados adicionais para uma maior personalização dos anúncios e dos conteúdos. A eficácia dos anúncios e dos conteúdos pode ser medida. Podem ser obtidas informações sobre o público que visualizou os anúncios e os conteúdos. Estes dados podem ser usados para desenvolver ou melhorar sistemas, softwares ou a experiência do utilizador.

Ao clicar em "Eu concordo”, permitirá o uso de cookies, identificadores do dispositivo e web beacons mencionados ou outras tecnologias semelhantes. As configurações do navegador do seu dispositivo podem ser alteradas.

Para certos fins, podem ser invocados interesses legítimos ao invés de consentimento. Pode ler mais informação sobre este assunto na nossa Política de Privacidade e Cookies.